Regional Weather Roundup
Issued by NWS Jackson, KY

Home | Current Version | Previous Version | Text Only | Print | Product List | Glossary Off
Versions: 1 2 3 4 5 6 7 8 9 10 11 12 13 14 15 16 17 18 19 20 21 22 23 24 25 26 27 28 29 30 31 32 33 34 35 36 37 38 39 40 41 42 43 44 45 46 47 48 49 50

439
ASUS43 KJKL 271210
RWRJKL

EAST KENTUCKY HOURLY WEATHER ROUNDUP
NATIONAL WEATHER SERVICE JACKSON KY
800 AM EDT MON MAR 27 2017

NOTE: "FAIR" INDICATES FEW OR NO CLOUDS BELOW 12,000 FEET WITH
NO SIGNIFICANT WEATHER AND/OR OBSTRUCTIONS TO VISIBILITY.

* THESE REPORTS ARE NOT UNDER NWS QUALITY CONTROL AND MAY NOT
  REPORT WEATHER SUCH AS PRECIPITATION AND FOG.

KYZ079-080-083-085-087-088-110-112-115-119-120-271300
...EASTERN KENTUCKY...

CITY           SKY/WX    TMP DP  RH WIND       PRES   REMARKS
JACKSON        CLOUDY    57  53  86 S3        30.02S
6HR MIN TEMP:  56; 6HR MAX TEMP:  59;

LONDON         PTCLDY    50  47  89 CALM      30.01S
6HR MIN TEMP:  49; 6HR MAX TEMP:  59;

SOMERSET*      PTCLDY    48  48 100 CALM      30.02S
MONTICELLO*    CLOUDY    50  48  93 W9        30.02R
6HR MIN TEMP:  45; 6HR MAX TEMP:  60;

WILLIAMSBURG*  SUNNY     55  54  94 SE6       30.02R
MIDDLESBORO*   CLEAR     45  45 100 CALM      30.06S
6HR MIN TEMP:  45; 6HR MAX TEMP:  51;

HARLAN APT*    CLOUDY    48  46  93 CALM      30.05S
PIKE CO APT*     N/A     56  54  91 SE3       30.03S
BIG SANDY APT* CLOUDY    56  55  94 S5        30.02S
6HR MIN TEMP:  54; 6HR MAX TEMP:  60;

MOREHEAD APT*  FOG       52  52 100 S6        30.02R VSB 1/4
ASHLAND*       CLOUDY    52  50  93 CALM      29.99S VSB<1/4
$$

KYZ035-036-041-042-044-050-067-078-099-271300
...CENTRAL KENTUCKY...

CITY           SKY/WX    TMP DP  RH WIND       PRES   REMARKS
MT STERLING*   FOG       52  52 100 S5        30.02R VSB 1/4
FLEMING/MASON* CLOUDY    54  52  95 S3        30.01R
DANVILLE*      CLOUDY    48  48 100 CALM      30.00F FOG
LEXINGTON      PTCLDY    53  50  89 SE7       29.99R
6HR MIN TEMP:  52; 6HR MAX TEMP:  57;

FRANKFORT      CLEAR     50  47  89 CALM      29.98R FOG
6HR MIN TEMP:  50; 6HR MAX TEMP:  54;

LOUISVILLE     CLOUDY    53  48  83 E3        29.96F
6HR MIN TEMP:  51; 6HR MAX TEMP:  57;

LEBANON*         N/A     55  50  82 E3        29.98S
GLASGOW*       CLOUDY   N/A N/A N/A CALM      29.97S
BOWLING GREEN  CLOUDY    51  50  96 CALM      29.96S FOG
6HR MIN TEMP:  49; 6HR MAX TEMP:  56;

$$

KYZ091>093-OHZ055-061-077-WVZ005-015-034-035-042-271300
...SOUTHERN OHIO/WEST VIRGINIA...

CITY           SKY/WX    TMP DP  RH WIND       PRES   REMARKS
COVINGTON      PTCLDY    44  44 100 CALM      29.99R
COLUMBUS       MOCLDY    50  49  96 S3        29.97S
DAYTON         CLOUDY    50  48  93 S7        29.98R
WILMINGTON     FOG       45  45 100 S3        29.99R VSB<1/4
HUNTINGTON     CLOUDY    52  51  97 CALM      30.01R FOG
CHARLESTON     MOCLDY    54  53  97 SE3       30.01S
PINEVILLE*     CLEAR     47  45  91 MISG      30.10S FOG
BECKLEY        MOCLDY    53  50  89 CALM      30.07R
LOGAN CO APT*    N/A     57  54  88 CALM      30.03S
$$

VAZ002-007-008-TNZ017-027-036-066-071-271300
...SOUTHWEST VIRGINIA/EAST TENNESSEE...

CITY           SKY/WX    TMP DP  RH WIND       PRES   REMARKS
WISE*          CLOUDY    55  50  82 S3        30.09R
JONESVILLE*      N/A     48  48 100 CALM      30.08R FOG
ABINGDON*      MOCLDY    55  53  95 CALM      30.08R
BRISTOL        PTCLDY    52  50  93 CALM      30.07R
MORRISTOWN*    MOSUNNY   54  54 100 CALM      30.05R
SEVIERVILLE*   PTSUNNY   52  48  87 CALM      30.04R
KNOXVILLE      CLOUDY    54  51  90 CALM      30.04R
LAFOLLETTE*    SUNNY     48  48 100 CALM      30.07S
OAK RIDGE      MOCLDY    54  51  90 CALM      30.06R
CROSSVILLE     CLEAR     56  53  90 S3        30.05R
NASHVILLE      MOCLDY    64  58  80 SW7       29.97R
$$

...KEY TO REMARKS...
VSB - VISIBILITY IN MILES
WCI - WIND CHILL INDEX
HX  - HEAT INDEX

$$




USA.gov is the U.S. government's official web portal to all federal, state and local government web resources and services.